[[{"header":{"parameterUnit":"m.s-1","parameterCategory":2,"la1":30.2991,"la2":30.254,"lo1":-89.0895,"lo2":-89.0444,"dy":0.0017,"dx":0.0017,"nx":28,"ny":28,"refTime":"2025-09-04T21:00:00:Z","depth":"0","parameterNumber":2,"parameterNumberName":"U-component_of_CURRENTS"},"data":[0,0,0,0,0,0,0,0,0,0,0,0,0,0,0,0,0,0,0,0,0,0,0,0,0,0,0,0,0,0,0,0,0,0,0,0,0,0,0,0,0,0,0,0,0,0,0,0,0,0,0,0,0,0,0,0,0,0,0.2839,0.2838,0,0.2798,0.2798,0.2797,0.2742,0.2741,0.2741,0.274,0.269,0.269,0.2689,0,0,0,0,0,0,0,0,0,0,0,0,0,0.2883,0.2882,0.2839,0.2838,0.2838,0.2798,0.2798,0.2797,0.2742,0.2741,0.274,0.2739,0.269,0.269,0.2689,0,0,0,0,0,0,0,0,0,0,0,0,0,0.2854,0.2882,0.2839,0.2807,0.2803,0.2798,0.2798,0.2797,0.2743,0.2741,0.274,0.2739,0.2691,0.269,0.2689,0.2709,0,0,0.2686,0.2686,0,0,0,0,0,0,0,0,0.2856,0.2853,0.2812,0.2809,0.2805,0.2775,0.2795,0.2767,0.2743,0.2765,0.274,0.2738,0.2719,0.2716,0.271,0.2706,0.2704,0.2686,0.2686,0.2686,0.2685,0,0,0,0,0,0,0,0.2858,0.2854,0.2822,0.2812,0.2808,0.2799,0.2793,0.2789,0.2749,0.2763,0.2759,0.2756,0.2717,0.2711,0.2708,0.2704,0.2686,0.2686,0.2685,0.2685,0.2703,0.2704,0,0,0,0,0,0,0.2866,0.2856,0.2823,0.2821,0.2829,0.2799,0.2793,0.2785,0.2749,0.2742,0.2757,0.2754,0.2713,0.2709,0.2706,0.2755,0.2686,0.2685,0.2684,0.2702,0.2703,0.2704,0,0,0,0,0,0,0.2867,0.2863,0.2825,0.2839,0.2833,0.28,0.2792,0.2785,0.2782,0.2745,0.2738,0.2762,0.2712,0.2708,0.2698,0.2752,0.2684,0.2684,0.2701,0.2703,0.2704,0.2836,0,0,0,0,0,0,0.2868,0.2863,0.2868,0.2839,0.2833,0.2832,0.2793,0.2785,0.2782,0.2778,0.2746,0.274,0.271,0.27,0.2698,0.2749,0.2683,0.27,0.2702,0.2703,0.283,0.2842,0.2851,0,0,0,0,0,0.287,0.2873,0.2868,0.2865,0.2837,0.2833,0.283,0.2801,0.2784,0.2792,0.276,0.2741,0.271,0.27,0.2697,0.275,0.2699,0.2701,0.2703,0.2825,0.2839,0.2851,0,0,0,0,0,0,0.2888,0.2867,0.2861,0.2857,0.2854,0.2825,0.2827,0.2814,0.2796,0.2789,0.275,0.2743,0.2763,0.2727,0.2717,0.2756,0.2704,0.2706,0.2798,0.281,0.2821,0.2856,0.2682,0,0,0,0,0,0.2899,0.2898,0.2882,0.2882,0.2882,0.2862,0.2859,0.2844,0.2822,0.2813,0.2793,0.277,0.2772,0.2765,0.2756,0.2773,0.2788,0.2803,0.2813,0.2823,0.2847,0.2917,0.2938,0.2712,0.2712,0.2712,0,0,0.2903,0.2895,0.2892,0.2887,0.288,0.2893,0.2856,0.2858,0.2882,0.2813,0.2834,0.2814,0.2784,0.2807,0.2813,0.2782,0.2895,0.2826,0.2834,0.2854,0.2922,0.2945,0.2965,0.2713,0.2713,0.2713,0,0,0.2913,0.291,0.2914,0.2921,0.2921,0.2919,0.2926,0.2913,0.2922,0.2928,0.2903,0.2913,0.2885,0.2898,0.2894,0.2957,0.2956,0.2946,0.3027,0.3095,0.3116,0.3134,0.319,0.3212,0.2944,0.2945,0.2945,0,0.292,0.2927,0.2918,0.2931,0.2947,0.2937,0.296,0.2975,0.2964,0.299,0.2945,0.2957,0.2938,0.2998,0.3018,0.299,0.3017,0.2987,0.3115,0.3133,0.3149,0.3202,0.3225,0.2951,0.295,0.295,0.2949,0,0.2934,0.295,0.2957,0.2976,0.2997,0.3015,0.3039,0.3067,0.3068,0.308,0.3131,0.3102,0.3108,0.3113,0.3083,0.3195,0.3174,0.3132,0.3094,0.3181,0.323,0.3252,0.2961,0.2958,0.2956,0.2955,0,0,0.2913,0.2959,0.2959,0.2989,0.3027,0.3042,0.3109,0.3167,0.3212,0.3218,0.3276,0.3297,0.3286,0.3282,0.3263,0.3321,0.3463,0.3281,0.3282,0.3359,0.3619,0.3473,0.3481,0.3448,0.3452,0.3456,0.361,0,0.2928,0.2967,0.2993,0.305,0.3079,0.312,0.3183,0.324,0.3273,0.3328,0.3353,0.3387,0.3351,0.3353,0.3417,0.3439,0.3525,0.3426,0.3504,0.3506,0.3384,0.3503,0.3246,0.335,0.3631,0.3634,0.3637,0,0.2929,0.2962,0.3014,0.3103,0.312,0.3156,0.3259,0.3316,0.3409,0.3433,0.3486,0.3492,0.3584,0.3525,0.3659,0.3595,0.3639,0.3658,0.3663,0.3499,0.34,0.3304,0.3378,0.3251,0.367,0.3667,0.3665,0,0.2911,0.2981,0.3029,0.3053,0.3143,0.3188,0.3245,0.3341,0.3407,0.3504,0.3542,0.363,0.3665,0.3742,0.3772,0.3735,0.3907,0.385,0.3778,0.3767,0.3549,0.3511,0.3525,0.3996,0.3995,0.3995,0.3994,0,0.2913,0.2948,0.3019,0.3039,0.3116,0.3183,0.3271,0.334,0.3443,0.352,0.3591,0.3651,0.3726,0.3809,0.3839,0.3865,0.3968,0.3833,0.3812,0.3582,0.3547,0.3421,0.3384,0.4001,0.3999,0.3998,0.3997,0,0.2874,0.292,0.2979,0.3071,0.3102,0.3154,0.3275,0.3342,0.3439,0.3539,0.3576,0.3705,0.379,0.3854,0.397,0.3931,0.384,0.3974,0.3688,0.3629,0.3375,0.3354,0.3289,0.3203,0.3912,0.391,0.3908,0,0.2851,0.2875,0.2975,0.3018,0.3057,0.3141,0.3206,0.3321,0.3393,0.3556,0.3605,0.3727,0.3765,0.3867,0.3822,0.3847,0.3776,0.3644,0.3521,0.336,0.3324,0.3236,0.3164,0.3301,0.3294,0.3289,0.3284,0,0.2816,0.2852,0.2907,0.2987,0.3054,0.3122,0.3217,0.3269,0.3404,0.3462,0.355,0.3591,0.3663,0.3541,0.3561,0.3544,0.3395,0.3526,0.3444,0.2928,0.2752,0.2655,0.321,0.3234,0.3239,0.3242,0.3245,0.3247,0.2785,0.2815,0.2888,0.2954,0.3026,0.3067,0.3061,0.3151,0.3198,0.3212,0.3377,0.3307,0.3275,0.3224,0.3215,0.2962,0.3066,0.2814,0.2835,0.2788,0.259,0.3026,0.2957,0.296,0.2963,0.2965,0.2967,0,0.2725,0.2773,0.285,0.2904,0.2913,0.2975,0.3033,0.2974,0.2927,0.297,0.2957,0.2805,0.2658,0.2628,0.2414,0.2282,0.2213,0.2208,0.2034,0.2028,0.2477,0.2327,0.201,0.201,0.201,0.2011,0.2011,0.2011,0.2705,0.2731,0.2765,0.2752,0.2772,0.2695,0.2669,0.2596,0.2573,0.2386,0.2239,0.2236,0.2212,0.2027,0.1813,0.1767,0.1671,0.1529,0.1659,0.1951,0.2009,0.2064,0.1914,0.1516,0.1516,0.1052,0.1048,0.1045]},{"header":{"parameterUnit":"m.s-1","parameterCategory":2,"la1":30.2991,"la2":30.254,"lo1":-89.0895,"lo2":-89.0444,"dy":0.0017,"dx":0.0017,"nx":28,"ny":28,"refTime":"2025-09-04T21:00:00:Z","depth":"0","parameterNumber":3,"parameterNumberName":"V-component_of_CURRENTS"},"data":[0,0,0,0,0,0,0,0,0,0,0,0,0,0,0,0,0,0,0,0,0,0,0,0,0,0,0,0,0,0,0,0,0,0,0,0,0,0,0,0,0,0,0,0,0,0,0,0,0,0,0,0,0,0,0,0,0,0,0.0264,0.0264,0,0.018,0.0179,0.0178,0.0121,0.0121,0.0121,0.0121,0.0061,0.006,0.0058,0,0,0,0,0,0,0,0,0,0,0,0,0,0.0303,0.0303,0.0264,0.0264,0.0263,0.0181,0.0179,0.0178,0.0121,0.0121,0.0121,0.0121,0.0061,0.006,0.0058,0,0,0,0,0,0,0,0,0,0,0,0,0,0.0258,0.0303,0.0265,0.0226,0.0222,0.0181,0.0179,0.0177,0.0121,0.0121,0.0121,0.0121,0.0062,0.006,0.0058,0.0051,0,0,0.0052,0.0051,0,0,0,0,0,0,0,0,0.026,0.0256,0.0233,0.0229,0.0224,0.0163,0.0171,0.0137,0.0122,0.0157,0.0121,0.012,0.0099,0.0094,0.0075,0.0049,0.0046,0.0051,0.005,0.0049,0.0049,0,0,0,0,0,0,0,0.0264,0.0259,0.0229,0.0232,0.0227,0.0188,0.0182,0.0164,0.013,0.0154,0.0151,0.0145,0.0096,0.0077,0.0074,0.0045,0.0051,0.005,0.0048,0.0047,0.0022,0.0022,0,0,0,0,0,0,0.0283,0.0262,0.0232,0.0227,0.0244,0.0188,0.0181,0.0181,0.0129,0.0122,0.0145,0.0142,0.0081,0.0076,0.0071,0.0091,0.0049,0.0047,0.0046,0.0021,0.0022,0.0022,0,0,0,0,0,0,0.0284,0.0281,0.0235,0.0244,0.0236,0.0189,0.0189,0.018,0.0166,0.0122,0.0115,0.0141,0.0081,0.0074,0.0059,0.0088,0.0046,0.0044,0.0021,0.0021,0.0022,0.0112,0,0,0,0,0,0,0.0285,0.0282,0.0289,0.0246,0.0236,0.0226,0.0189,0.0178,0.0163,0.0159,0.0117,0.011,0.008,0.0063,0.0057,0.0084,0.0043,0.002,0.0021,0.0022,0.0108,0.0116,0.0122,0,0,0,0,0,0.0287,0.03,0.029,0.0286,0.0248,0.0227,0.0219,0.0182,0.0164,0.0166,0.0132,0.0112,0.0066,0.0061,0.0055,0.0082,0.0019,0.0021,0.0022,0.0105,0.0114,0.0122,0,0,0,0,0,0,0.0314,0.0294,0.0283,0.0287,0.0267,0.0218,0.0214,0.0191,0.0163,0.0159,0.0116,0.0107,0.0104,0.0078,0.0074,0.0076,0.0041,0.0041,0.0106,0.0115,0.0122,0.0158,0.0041,0,0,0,0,0,0.0327,0.0336,0.0306,0.031,0.0303,0.0261,0.0248,0.0225,0.0194,0.0181,0.0152,0.0122,0.0103,0.0097,0.0072,0.0075,0.0076,0.0088,0.0095,0.0101,0.0125,0.0155,0.0168,0.0027,0.0027,0.0027,0,0,0.0336,0.0329,0.0331,0.0318,0.0295,0.0295,0.0252,0.024,0.0243,0.0181,0.0177,0.0144,0.0107,0.0106,0.0104,0.0091,0.0137,0.0103,0.0108,0.013,0.0158,0.0172,0.0185,0.0028,0.0027,0.0027,0,0,0.0363,0.0356,0.0372,0.0362,0.0343,0.0322,0.0326,0.0288,0.0276,0.0263,0.0224,0.0219,0.0173,0.017,0.0157,0.0191,0.0169,0.0171,0.0244,0.0273,0.0286,0.0297,0.0305,0.0317,0.018,0.018,0.018,0,0.0375,0.0393,0.0372,0.0383,0.0383,0.0342,0.0358,0.0341,0.0304,0.0311,0.0274,0.0244,0.0212,0.0238,0.0242,0.0213,0.0211,0.0217,0.0286,0.0297,0.0307,0.0313,0.0324,0.0185,0.0184,0.0184,0.0183,0,0.041,0.0425,0.0433,0.044,0.0439,0.0444,0.0425,0.0426,0.0404,0.0388,0.0398,0.0354,0.0346,0.033,0.0292,0.0349,0.0317,0.0289,0.0273,0.0327,0.0329,0.0339,0.0191,0.019,0.0188,0.0187,0,0,0.0433,0.0456,0.0458,0.0478,0.0473,0.0476,0.0496,0.0509,0.0535,0.0501,0.054,0.0506,0.0488,0.0475,0.0437,0.0458,0.0516,0.0407,0.0406,0.043,0.0566,0.052,0.0526,0.0497,0.0499,0.0501,0.0536,0,0.0467,0.0513,0.0513,0.0554,0.0575,0.0562,0.0589,0.0596,0.0591,0.0616,0.0598,0.0608,0.0541,0.0544,0.0558,0.0524,0.0549,0.0509,0.0497,0.0497,0.0462,0.0539,0.0529,0.0557,0.0546,0.0547,0.0549,0,0.0499,0.0531,0.0584,0.0628,0.0637,0.0656,0.0705,0.0721,0.0749,0.0748,0.0763,0.0737,0.0765,0.0696,0.0702,0.0675,0.0638,0.0609,0.0609,0.0548,0.0471,0.0501,0.0576,0.0497,0.0564,0.0563,0.0562,0,0.0533,0.0578,0.0632,0.0642,0.0683,0.0714,0.0736,0.0766,0.0805,0.0842,0.0878,0.088,0.0903,0.0864,0.079,0.0754,0.0789,0.0731,0.0661,0.0655,0.0639,0.0628,0.0654,0.076,0.076,0.076,0.076,0,0.0573,0.061,0.0654,0.0681,0.0749,0.076,0.0831,0.0853,0.091,0.0986,0.0955,0.1022,0.0949,0.0945,0.0855,0.0796,0.0845,0.0703,0.0679,0.0665,0.0657,0.0576,0.0528,0.0761,0.0761,0.0761,0.0761,0,0.0602,0.0629,0.0689,0.0746,0.0766,0.0815,0.0888,0.0948,0.099,0.1095,0.1121,0.1154,0.1154,0.106,0.101,0.0897,0.0784,0.0794,0.077,0.0741,0.0575,0.0532,0.054,0.0511,0.0729,0.0728,0.0728,0,0.0626,0.0661,0.0732,0.0777,0.0806,0.0873,0.0931,0.0983,0.1059,0.1185,0.1257,0.1292,0.1335,0.1224,0.1047,0.09,0.0804,0.0764,0.0697,0.0597,0.0531,0.0497,0.047,0.0705,0.0705,0.0704,0.0704,0,0.0672,0.0694,0.0746,0.0832,0.0899,0.0978,0.1067,0.1138,0.1232,0.1334,0.1477,0.1524,0.143,0.1288,0.1062,0.0943,0.0706,0.0746,0.067,0.0552,0.0495,0.0444,0.0631,0.0698,0.0699,0.0699,0.07,0.07,0.0705,0.0748,0.0816,0.0898,0.0979,0.1087,0.116,0.1274,0.1413,0.1572,0.1623,0.1698,0.1472,0.1178,0.1008,0.0669,0.0694,0.0554,0.0522,0.0505,0.0453,0.0615,0.0629,0.0629,0.0629,0.0629,0.0629,0,0.0749,0.0801,0.0879,0.0983,0.1077,0.1111,0.1259,0.1349,0.1519,0.165,0.1767,0.1675,0.1416,0.1108,0.0665,0.0469,0.0408,0.0371,0.0335,0.0326,0.0502,0.0474,0.0421,0.0421,0.0421,0.0421,0.0421,0.0421,0.0777,0.0853,0.0891,0.1046,0.1124,0.1253,0.1339,0.148,0.1593,0.1711,0.1724,0.1734,0.1486,0.0805,0.0366,0.028,0.0173,0.0149,0.0108,0.0222,0.0237,0.0251,0.0214,0.0108,0.0108,-0.0049,-0.0051,-0.0052]}],[{"header":{"parameterUnit":"m.s-1","parameterCategory":2,"la1":30.2991,"la2":30.254,"lo1":-89.0895,"lo2":-89.0444,"dy":0.0017,"dx":0.0017,"nx":28,"ny":28,"refTime":"2025-09-04T21:00:00:Z","depth":"2","parameterNumber":2,"parameterNumberName":"U-component_of_CURRENTS"},"data":[0,0,0,0,0,0,0,0,0,0,0,0,0,0,0,0,0,0,0,0,0,0,0,0,0,0,0,0,0,0,0,0,0,0,0,0,0,0,0,0,0,0,0,0,0,0,0,0,0,0,0,0,0,0,0,0,0,0,0.2177,0.2178,0,0.215,0.2149,0.2148,0.2145,0.2147,0.2148,0.2149,0.2167,0.2167,0.2166,0,0,0,0,0,0,0,0,0,0,0,0,0,0.2171,0.217,0.2177,0.2178,0.2178,0.215,0.2149,0.2148,0.2145,0.2147,0.2148,0.2149,0.2167,0.2167,0.2166,0,0,0,0,0,0,0,0,0,0,0,0,0,0.2153,0.217,0.2177,0.2181,0.2181,0.215,0.2149,0.2147,0.2145,0.2147,0.2148,0.215,0.2168,0.2167,0.2166,0.2126,0,0,0.2163,0.2163,0,0,0,0,0,0,0,0,0.2154,0.2152,0.218,0.2181,0.2181,0.2161,0.2154,0.2146,0.2144,0.2149,0.2149,0.2151,0.2174,0.2173,0.215,0.2127,0.2128,0.2163,0.2163,0.2162,0.2162,0,0,0,0,0,0,0,0.2155,0.2153,0.2157,0.218,0.2181,0.2165,0.2164,0.2151,0.2146,0.2149,0.2151,0.2162,0.2174,0.2151,0.2151,0.2128,0.2163,0.2163,0.2162,0.2162,0.2175,0.2176,0,0,0,0,0,0,0.2178,0.2154,0.2158,0.2157,0.2182,0.2164,0.2163,0.2158,0.2145,0.2147,0.2161,0.2162,0.2151,0.2152,0.2152,0.2217,0.2162,0.2162,0.2161,0.2174,0.2175,0.2176,0,0,0,0,0,0,0.2178,0.2178,0.2159,0.2163,0.2161,0.2164,0.2158,0.2157,0.2156,0.2155,0.2157,0.2165,0.2153,0.2153,0.2174,0.2214,0.2161,0.216,0.2173,0.2174,0.2176,0.2276,0,0,0,0,0,0,0.2177,0.2177,0.218,0.2164,0.2162,0.2157,0.2158,0.2156,0.2164,0.2165,0.2159,0.2161,0.2154,0.2175,0.2173,0.2212,0.216,0.2172,0.2174,0.2175,0.2272,0.2281,0.2289,0,0,0,0,0,0.2177,0.2177,0.218,0.2181,0.2166,0.2158,0.2154,0.2156,0.2163,0.216,0.2171,0.2163,0.2184,0.2175,0.2172,0.2212,0.2171,0.2173,0.2175,0.2268,0.2279,0.2288,0,0,0,0,0,0,0.2165,0.2177,0.218,0.218,0.218,0.2162,0.2165,0.2163,0.2162,0.2181,0.2169,0.2172,0.2212,0.2185,0.2176,0.2218,0.2177,0.2179,0.2249,0.2259,0.2267,0.2301,0.2159,0,0,0,0,0,0.2167,0.2178,0.2178,0.218,0.2183,0.2174,0.2173,0.2181,0.2183,0.2184,0.2189,0.2195,0.2209,0.2215,0.2221,0.2231,0.2243,0.2253,0.2262,0.2269,0.2293,0.2361,0.2379,0.2182,0.2182,0.2182,0,0,0.2165,0.2175,0.2179,0.218,0.2178,0.218,0.2175,0.219,0.2211,0.2187,0.2221,0.2231,0.222,0.2252,0.2265,0.2239,0.2326,0.2272,0.2279,0.2299,0.2365,0.2385,0.2402,0.2184,0.2184,0.2183,0,0,0.217,0.2173,0.2185,0.2187,0.2208,0.2201,0.2212,0.2217,0.2241,0.2263,0.2273,0.2313,0.2301,0.2327,0.2329,0.2379,0.2376,0.2371,0.2436,0.2501,0.2519,0.2535,0.256,0.2577,0.2366,0.2367,0.2367,0,0.2186,0.2178,0.2186,0.2197,0.2226,0.2214,0.2245,0.2242,0.2262,0.2295,0.2292,0.2341,0.2343,0.2399,0.2429,0.2405,0.2426,0.2402,0.2517,0.2533,0.2548,0.2569,0.2587,0.2372,0.2371,0.2371,0.237,0,0.2185,0.2191,0.2198,0.2215,0.2248,0.2262,0.2291,0.2315,0.2343,0.235,0.2429,0.2445,0.2473,0.2484,0.2475,0.2577,0.2553,0.2531,0.2501,0.2574,0.2591,0.2608,0.2379,0.2377,0.2376,0.2374,0,0,0.2202,0.2205,0.2205,0.2214,0.2272,0.2278,0.235,0.2393,0.2406,0.246,0.2523,0.2577,0.2591,0.2598,0.2606,0.2672,0.2793,0.2656,0.2657,0.2696,0.2923,0.2769,0.2772,0.2802,0.2806,0.2809,0.2888,0,0.2208,0.2223,0.2249,0.2269,0.2286,0.2338,0.2388,0.244,0.247,0.2509,0.2584,0.2627,0.2626,0.266,0.2731,0.2785,0.2846,0.2773,0.2832,0.2833,0.2702,0.279,0.254,0.2578,0.2904,0.2907,0.2909,0,0.2198,0.2216,0.2257,0.2297,0.2314,0.2333,0.242,0.2471,0.254,0.2589,0.2667,0.2679,0.2806,0.2787,0.2934,0.289,0.2924,0.2959,0.2962,0.2801,0.2712,0.2559,0.2596,0.2937,0.2935,0.2933,0.2931,0,0.219,0.2212,0.2247,0.2261,0.2313,0.2365,0.2416,0.2495,0.2563,0.2656,0.2692,0.2797,0.2886,0.2962,0.3021,0.2995,0.3169,0.3122,0.3012,0.2999,0.2788,0.275,0.3235,0.3234,0.3234,0.3234,0.3234,0,0.2177,0.2189,0.222,0.2226,0.2273,0.2357,0.2421,0.2482,0.2602,0.2671,0.2731,0.2794,0.2946,0.3026,0.3063,0.309,0.3197,0.3051,0.3027,0.2808,0.2773,0.3081,0.3062,0.3237,0.3236,0.3236,0.3235,0,0.2153,0.2167,0.2186,0.2238,0.2264,0.2311,0.2447,0.2473,0.2594,0.2704,0.2758,0.2869,0.2959,0.3037,0.3179,0.3132,0.3174,0.3152,0.2865,0.2804,0.2945,0.293,0.303,0.3026,0.3022,0.3019,0.3016,0,0.2133,0.2138,0.219,0.2202,0.2221,0.2302,0.2357,0.2494,0.2547,0.272,0.2762,0.2883,0.2897,0.3,0.2974,0.298,0.3112,0.2761,0.2656,0.2967,0.2934,0.2925,0.2915,0.2416,0.2409,0.2403,0.2398,0,0.2089,0.2108,0.2119,0.2167,0.2198,0.2255,0.2343,0.237,0.2535,0.2601,0.2671,0.2697,0.2757,0.2636,0.2654,0.263,0.273,0.2633,0.3083,0.2485,0.2388,0.2355,0.2366,0.2345,0.235,0.2354,0.2357,0.2359,0.2052,0.2041,0.2057,0.2116,0.2145,0.2169,0.2159,0.2226,0.2285,0.2322,0.2453,0.2402,0.243,0.2265,0.2212,0.2188,0.2367,0.2284,0.2304,0.2329,0.2223,0.2123,0.2009,0.2012,0.2014,0.2017,0.2019,0,0.1983,0.1993,0.2013,0.2023,0.2014,0.2093,0.2115,0.2058,0.2028,0.2092,0.2097,0.1877,0.177,0.184,0.1683,0.1661,0.166,0.1631,0.1624,0.1676,0.1724,0.1588,0.1204,0.1202,0.12,0.1198,0,0,0.1943,0.1912,0.194,0.1898,0.1914,0.1841,0.1819,0.1751,0.1741,0.1635,0.1599,0.1639,0.1737,0.142,0.1384,0.1282,0.1475,0.123,0.1881,0.1924,0.1969,0.2094,0.1942,0,0,0,0,0]},{"header":{"parameterUnit":"m.s-1","parameterCategory":2,"la1":30.2991,"la2":30.254,"lo1":-89.0895,"lo2":-89.0444,"dy":0.0017,"dx":0.0017,"nx":28,"ny":28,"refTime":"2025-09-04T21:00:00:Z","depth":"2","parameterNumber":3,"parameterNumberName":"V-component_of_CURRENTS"},"data":[0,0,0,0,0,0,0,0,0,0,0,0,0,0,0,0,0,0,0,0,0,0,0,0,0,0,0,0,0,0,0,0,0,0,0,0,0,0,0,0,0,0,0,0,0,0,0,0,0,0,0,0,0,0,0,0,0,0,0.011,0.011,0,0.0075,0.0074,0.0074,0.0054,0.0054,0.0054,0.0054,0.0011,0.001,0.0009,0,0,0,0,0,0,0,0,0,0,0,0,0,0.0133,0.0133,0.011,0.011,0.0109,0.0075,0.0074,0.0073,0.0054,0.0054,0.0054,0.0054,0.0011,0.001,0.0008,0,0,0,0,0,0,0,0,0,0,0,0,0,0.0112,0.0132,0.011,0.0096,0.0094,0.0075,0.0074,0.0073,0.0054,0.0054,0.0054,0.0054,0.0012,0.001,0.0008,-0.0002,0,0,0.0003,0.0002,0,0,0,0,0,0,0,0,0.0113,0.0111,0.0098,0.0097,0.0095,0.0069,0.0066,0.0048,0.0054,0.0068,0.0054,0.0054,0.003,0.0027,0.0019,-0.0004,-0.0006,0.0003,0.0002,0.0001,0.0001,0,0,0,0,0,0,0,0.0115,0.0112,0.0095,0.0098,0.0096,0.0081,0.0079,0.0063,0.0049,0.0067,0.0066,0.0063,0.0029,0.0021,0.0018,-0.0007,0.0003,0.0001,0.0,-0.0,-0.0027,-0.0027,0,0,0,0,0,0,0.0122,0.0114,0.0096,0.0094,0.0105,0.0081,0.0078,0.0077,0.0049,0.0045,0.0063,0.0062,0.0024,0.002,0.0017,0.0016,0.0001,-0.0,-0.0001,-0.0028,-0.0027,-0.0027,0,0,0,0,0,0,0.0123,0.0121,0.0098,0.0104,0.01,0.0081,0.008,0.0076,0.0069,0.0046,0.0042,0.006,0.0024,0.0019,0.0003,0.0014,-0.0001,-0.0003,-0.0028,-0.0028,-0.0027,0.0006,0,0,0,0,0,0,0.0124,0.0121,0.0123,0.0104,0.01,0.0089,0.008,0.0075,0.0068,0.0066,0.0042,0.0038,0.0023,0.0006,0.0001,0.0011,-0.0004,-0.0028,-0.0028,-0.0027,0.0005,0.0008,0.0011,0,0,0,0,0,0.0124,0.0131,0.0123,0.0121,0.0103,0.0089,0.0085,0.0071,0.0068,0.0065,0.0049,0.0039,0.0007,0.0004,-0.0001,0.0009,-0.0029,-0.0028,-0.0027,0.0004,0.0007,0.001,0,0,0,0,0,0,0.0138,0.0129,0.012,0.0122,0.0107,0.0086,0.0086,0.0074,0.0058,0.006,0.0037,0.0032,0.0023,0.001,0.0008,0.0003,-0.001,-0.0011,0.0015,0.0018,0.0021,0.0044,-0.0006,0,0,0,0,0,0.0142,0.0147,0.0128,0.0129,0.0125,0.0105,0.0098,0.0088,0.0072,0.0065,0.0046,0.0031,0.0021,0.0015,-0.0,-0.0006,-0.0009,-0.0001,0.0002,0.0004,0.002,0.0027,0.0032,-0.0025,-0.0025,-0.0025,0,0,0.0147,0.0143,0.0145,0.0133,0.0122,0.0119,0.0101,0.0095,0.0091,0.0063,0.0053,0.0037,0.0021,0.0015,0.0011,0.0006,0.0015,0.0005,0.0008,0.0022,0.0028,0.0034,0.0039,-0.0024,-0.0024,-0.0024,0,0,0.0163,0.0156,0.0167,0.0158,0.0146,0.0132,0.0132,0.011,0.0101,0.0086,0.0071,0.0066,0.0036,0.0036,0.0032,0.0042,0.0027,0.0032,0.0068,0.0074,0.008,0.0084,0.0072,0.0075,0.0037,0.0037,0.0037,0,0.0171,0.018,0.0166,0.0172,0.017,0.0141,0.0148,0.0133,0.0106,0.0107,0.0087,0.0073,0.0052,0.0068,0.0068,0.0051,0.0043,0.0056,0.0079,0.0084,0.0088,0.0075,0.0078,0.0039,0.0039,0.0039,0.0039,0,0.0193,0.0199,0.0205,0.0205,0.0198,0.02,0.0178,0.0172,0.0154,0.0139,0.014,0.0117,0.0115,0.0104,0.0085,0.0109,0.0089,0.008,0.0073,0.0096,0.008,0.0082,0.0042,0.0041,0.004,0.004,0,0,0.0216,0.0222,0.0225,0.0233,0.0219,0.0217,0.0217,0.0212,0.0223,0.0193,0.0215,0.019,0.0181,0.0177,0.016,0.0163,0.017,0.0134,0.0133,0.0127,0.0171,0.0141,0.0141,0.0163,0.0164,0.0164,0.0142,0,0.0239,0.0266,0.0258,0.0275,0.0287,0.0268,0.027,0.0262,0.0249,0.0258,0.0245,0.0252,0.0208,0.0218,0.0211,0.0192,0.0181,0.0176,0.0146,0.0146,0.0121,0.0145,0.0161,0.0142,0.0145,0.0145,0.0146,0,0.0265,0.0282,0.0309,0.0323,0.0326,0.033,0.0344,0.0341,0.0342,0.0338,0.0345,0.033,0.0342,0.0298,0.0276,0.0273,0.0223,0.0196,0.0195,0.0163,0.0122,0.0123,0.0147,0.015,0.015,0.0149,0.0149,0,0.0297,0.0317,0.0344,0.0347,0.0354,0.0369,0.037,0.0371,0.0392,0.0401,0.0426,0.0416,0.0442,0.0384,0.0323,0.0301,0.0292,0.0255,0.0177,0.0173,0.0181,0.0176,0.0229,0.0229,0.0229,0.0229,0.0229,0,0.0328,0.0348,0.0365,0.038,0.0414,0.0405,0.0445,0.0441,0.0471,0.0527,0.0477,0.0534,0.0468,0.0453,0.036,0.0288,0.032,0.0194,0.0175,0.0189,0.0186,0.0191,0.0187,0.0228,0.0229,0.0229,0.0229,0,0.0357,0.0365,0.0399,0.0422,0.0431,0.0456,0.05,0.0542,0.0546,0.0626,0.0644,0.0649,0.0629,0.0535,0.0465,0.036,0.0276,0.0232,0.0244,0.0226,0.0134,0.0132,0.0142,0.0141,0.0141,0.014,0.0139,0,0.0374,0.0395,0.0435,0.0464,0.0477,0.0518,0.0561,0.058,0.0646,0.0712,0.0775,0.0774,0.079,0.0648,0.0481,0.0312,0.0288,0.0201,0.0158,0.0149,0.013,0.0129,0.0128,0.0173,0.0172,0.0172,0.0172,0,0.0406,0.042,0.045,0.0516,0.0566,0.0629,0.07,0.0768,0.0825,0.0889,0.0984,0.0993,0.0859,0.0714,0.0472,0.0351,0.0226,0.0188,0.0208,0.0187,0.0175,0.0156,0.0155,0.017,0.017,0.017,0.017,0.0171,0.0432,0.0459,0.0507,0.0572,0.0639,0.0746,0.0809,0.091,0.1019,0.1107,0.1121,0.1101,0.0925,0.0606,0.0422,0.0214,0.0213,0.0122,0.0125,0.0127,0.013,0.0117,0.01,0.01,0.0099,0.0099,0.0099,0,0.0465,0.0502,0.0562,0.0647,0.0738,0.0766,0.0907,0.0976,0.1117,0.1174,0.1211,0.1013,0.0841,0.0633,0.0329,0.014,0.0127,0.0078,0.0111,0.0114,0.0117,0.012,0.0087,0.0087,0.0086,0.0086,0,0,0.0482,0.054,0.0574,0.0716,0.0787,0.0901,0.0984,0.1087,0.1148,0.119,0.1161,0.1092,0.0875,0.0642,0.0413,0.0259,0.0222,0.0217,0.0245,0.0315,0.032,0.016,0.0171,0,0,0,0,0]}],[{"header":{"parameterUnit":"m.s-1","parameterCategory":2,"la1":30.2991,"la2":30.254,"lo1":-89.0895,"lo2":-89.0444,"dy":0.0017,"dx":0.0017,"nx":28,"ny":28,"refTime":"2025-09-04T21:00:00:Z","depth":"4","parameterNumber":2,"parameterNumberName":"U-component_of_CURRENTS"},"data":[0,0,0,0,0,0,0,0,0,0,0,0,0,0,0,0,0,0,0,0,0,0,0,0,0,0,0,0,0,0,0,0,0,0,0,0,0,0,0,0,0,0,0,0,0,0,0,0,0,0,0,0,0,0,0,0,0,0,0.1113,0.1113,0,0.115,0.115,0.115,0.1173,0.1174,0.1174,0.1175,0.1213,0.1213,0.1214,0,0,0,0,0,0,0,0,0,0,0,0,0,0.1067,0.1067,0.1113,0.1113,0.1114,0.115,0.115,0.115,0.1173,0.1174,0.1174,0.1175,0.1213,0.1213,0.1214,0,0,0,0,0,0,0,0,0,0,0,0,0,0.109,0.1067,0.1112,0.1133,0.1136,0.115,0.115,0.115,0.1173,0.1174,0.1174,0.1175,0.1213,0.1213,0.1214,0.1204,0,0,0.1217,0.1217,0,0,0,0,0,0,0,0,0.1088,0.1091,0.1129,0.1132,0.1135,0.1162,0.1149,0.117,0.1173,0.1154,0.1175,0.1176,0.1198,0.12,0.1199,0.1205,0.1207,0.1217,0.1217,0.1217,0.1218,0,0,0,0,0,0,0,0.1087,0.1089,0.1123,0.113,0.1134,0.1143,0.1147,0.1152,0.1168,0.1156,0.1159,0.117,0.1199,0.1198,0.12,0.1208,0.1217,0.1217,0.1218,0.1218,0.1276,0.1277,0,0,0,0,0,0,0.109,0.1088,0.1122,0.1125,0.1118,0.1144,0.1148,0.1149,0.1168,0.1173,0.1169,0.1171,0.1197,0.1199,0.1202,0.1255,0.1217,0.1218,0.1219,0.1275,0.1276,0.1277,0,0,0,0,0,0,0.1088,0.1092,0.112,0.1111,0.1116,0.1144,0.1145,0.1149,0.1176,0.1179,0.1183,0.1196,0.1197,0.1201,0.1232,0.1254,0.1219,0.1219,0.1274,0.1275,0.1277,0.1319,0,0,0,0,0,0,0.1087,0.1091,0.1104,0.1111,0.1117,0.1139,0.1145,0.1149,0.1182,0.1185,0.1203,0.1205,0.1198,0.1231,0.1233,0.1254,0.122,0.1272,0.1274,0.1276,0.1317,0.1322,0.1327,0,0,0,0,0,0.1085,0.1095,0.1103,0.1109,0.1129,0.114,0.1144,0.1163,0.1183,0.1191,0.1213,0.1206,0.1245,0.1233,0.1235,0.1257,0.1271,0.1274,0.1276,0.1314,0.1321,0.1327,0,0,0,0,0,0,0.108,0.1099,0.1108,0.1124,0.1138,0.1146,0.1167,0.118,0.1203,0.1218,0.122,0.1224,0.1257,0.1253,0.124,0.128,0.1257,0.126,0.1285,0.1292,0.1297,0.1309,0.1221,0,0,0,0,0,0.1085,0.1103,0.1115,0.1131,0.1142,0.116,0.1175,0.1186,0.1204,0.1217,0.1227,0.1245,0.1263,0.1276,0.1282,0.1307,0.1313,0.1322,0.1328,0.1332,0.1344,0.1394,0.1405,0.1285,0.1285,0.1285,0,0,0.1091,0.1105,0.1116,0.1133,0.115,0.1158,0.117,0.1198,0.121,0.1217,0.1246,0.1263,0.1273,0.1299,0.1313,0.1303,0.1362,0.1335,0.1339,0.1349,0.1397,0.1409,0.142,0.1287,0.1286,0.1286,0,0,0.1101,0.1122,0.1136,0.1145,0.1174,0.118,0.1195,0.1213,0.1232,0.1256,0.1271,0.1311,0.1321,0.1342,0.1353,0.1393,0.1387,0.1393,0.1432,0.148,0.1491,0.15,0.1494,0.1502,0.1397,0.1397,0.1398,0,0.1111,0.112,0.1142,0.1151,0.1162,0.1192,0.1199,0.1219,0.1245,0.1268,0.127,0.1332,0.1342,0.1395,0.1411,0.1406,0.1417,0.1407,0.1488,0.1498,0.1507,0.1498,0.1507,0.14,0.14,0.1399,0.1399,0,0.1114,0.1131,0.1143,0.116,0.1171,0.1189,0.121,0.1235,0.1264,0.1285,0.1347,0.1375,0.1419,0.1427,0.1432,0.1505,0.1484,0.1488,0.1473,0.1522,0.1508,0.1517,0.1403,0.1402,0.1402,0.1401,0,0,0.1116,0.1141,0.1149,0.1147,0.1179,0.1178,0.1216,0.1249,0.1286,0.1327,0.138,0.1431,0.1473,0.1491,0.1516,0.1561,0.1623,0.1559,0.156,0.1553,0.17,0.158,0.1577,0.1651,0.1654,0.1656,0.1654,0,0.1117,0.1124,0.1141,0.1146,0.1148,0.1181,0.1202,0.1239,0.1293,0.1349,0.1417,0.1476,0.1491,0.1533,0.1585,0.1622,0.1654,0.1621,0.1654,0.1654,0.1543,0.1586,0.1664,0.166,0.1662,0.1664,0.1665,0,0.111,0.1115,0.1123,0.1126,0.1132,0.1143,0.1192,0.1215,0.131,0.1362,0.1459,0.1515,0.161,0.1611,0.1706,0.1689,0.1703,0.1718,0.1718,0.1602,0.1551,0.1609,0.168,0.1679,0.1678,0.1677,0.1676,0,0.108,0.1096,0.1101,0.1104,0.1121,0.1138,0.1153,0.1228,0.1264,0.1396,0.1461,0.1568,0.1643,0.1696,0.1751,0.1739,0.1832,0.1811,0.1704,0.1694,0.1783,0.1773,0.187,0.187,0.187,0.187,0.187,0,0.1056,0.106,0.109,0.1088,0.1087,0.111,0.1143,0.1192,0.1285,0.134,0.1479,0.1549,0.1678,0.175,0.1769,0.1764,0.185,0.1716,0.1699,0.1794,0.1786,0.1786,0.1777,0.187,0.187,0.187,0.187,0,0.1017,0.1045,0.1041,0.1065,0.1074,0.1071,0.1116,0.1145,0.1257,0.1345,0.1397,0.1556,0.1648,0.174,0.1821,0.1776,0.1784,0.1758,0.1835,0.1821,0.1596,0.1589,0.1616,0.1612,0.1609,0.1606,0.1604,0,0.0993,0.0995,0.1018,0.1014,0.1029,0.104,0.1052,0.1129,0.1162,0.1327,0.1354,0.1506,0.1602,0.1626,0.1712,0.1734,0.1722,0.1693,0.166,0.1597,0.1578,0.1576,0.1573,0.1598,0.1598,0.1597,0.1596,0,0.0942,0.0968,0.0965,0.0959,0.0967,0.0965,0.0986,0.1007,0.1105,0.1223,0.1306,0.1381,0.1479,0.1547,0.1596,0.1602,0.1696,0.1658,0.1664,0.1632,0.1576,0.156,0.1561,0.1584,0.1586,0.1587,0.1588,0,0.0908,0.0889,0.0894,0.0874,0.0889,0.0879,0.0902,0.0932,0.0975,0.1152,0.1163,0.1336,0.1456,0.1476,0.1507,0.1526,0.1491,0.1428,0.1445,0.1459,0.1412,0.1317,0.1238,0,0,0,0,0,0.0863,0.0825,0.0801,0.0776,0.0798,0.0814,0.0847,0.0881,0.0986,0.1013,0.1086,0.1173,0.126,0.1327,0.1315,0.1414,0.1485,0.1389,0.1418,0.152,0.1533,0.1495,0,0,0,0,0,0,0.0823,0.0805,0.0768,0.0706,0.0698,0.0711,0.0746,0.0821,0.0823,0.095,0.1005,0.1096,0.1196,0.1282,0.1303,0.1319,0.1305,0.1472,0.1468,0.1512,0.1525,0.1535,0.15,0,0,0,0,0]},{"header":{"parameterUnit":"m.s-1","parameterCategory":2,"la1":30.2991,"la2":30.254,"lo1":-89.0895,"lo2":-89.0444,"dy":0.0017,"dx":0.0017,"nx":28,"ny":28,"refTime":"2025-09-04T21:00:00:Z","depth":"4","parameterNumber":3,"parameterNumberName":"V-component_of_CURRENTS"},"data":[0,0,0,0,0,0,0,0,0,0,0,0,0,0,0,0,0,0,0,0,0,0,0,0,0,0,0,0,0,0,0,0,0,0,0,0,0,0,0,0,0,0,0,0,0,0,0,0,0,0,0,0,0,0,0,0,0,0,0.0135,0.0135,0,0.0123,0.0123,0.0123,0.013,0.0131,0.0131,0.0131,0.0128,0.0127,0.0127,0,0,0,0,0,0,0,0,0,0,0,0,0,0.0139,0.0139,0.0135,0.0135,0.0135,0.0123,0.0123,0.0123,0.013,0.0131,0.0131,0.0132,0.0128,0.0127,0.0127,0,0,0,0,0,0,0,0,0,0,0,0,0,0.0133,0.0139,0.0135,0.0137,0.0137,0.0123,0.0123,0.0123,0.013,0.0131,0.0131,0.0132,0.0128,0.0127,0.0127,0.0112,0,0,0.0125,0.0124,0,0,0,0,0,0,0,0,0.0133,0.0133,0.0137,0.0137,0.0137,0.0129,0.0123,0.012,0.013,0.0133,0.0131,0.0132,0.0128,0.0128,0.0124,0.0111,0.0111,0.0124,0.0124,0.0124,0.0124,0,0,0,0,0,0,0,0.0134,0.0133,0.013,0.0137,0.0137,0.013,0.013,0.0122,0.0128,0.0133,0.0133,0.0132,0.0129,0.0125,0.0124,0.0111,0.0124,0.0124,0.0123,0.0123,0.0107,0.0107,0,0,0,0,0,0,0.0136,0.0134,0.0131,0.013,0.0137,0.013,0.013,0.0131,0.0128,0.0128,0.0131,0.0132,0.0125,0.0125,0.0124,0.0126,0.0124,0.0123,0.0123,0.0107,0.0107,0.0107,0,0,0,0,0,0,0.0136,0.0136,0.0131,0.0132,0.013,0.0129,0.013,0.013,0.0131,0.0127,0.0127,0.0133,0.0126,0.0125,0.0121,0.0125,0.0123,0.0122,0.0107,0.0107,0.0107,0.0118,0,0,0,0,0,0,0.0137,0.0136,0.0138,0.0132,0.0131,0.0127,0.013,0.013,0.0129,0.013,0.0128,0.0128,0.0126,0.0122,0.012,0.0124,0.0122,0.0107,0.0107,0.0107,0.0117,0.0118,0.0119,0,0,0,0,0,0.0137,0.0139,0.0139,0.0138,0.0134,0.0127,0.0126,0.0127,0.0129,0.0129,0.0127,0.0128,0.012,0.0121,0.0119,0.0123,0.0107,0.0107,0.0107,0.0117,0.0118,0.0118,0,0,0,0,0,0,0.014,0.014,0.0139,0.0141,0.0136,0.0129,0.013,0.0127,0.0125,0.0127,0.0124,0.0124,0.0122,0.0119,0.0119,0.0118,0.0115,0.0114,0.0123,0.0124,0.0125,0.0129,0.0121,0,0,0,0,0,0.0141,0.0146,0.014,0.0141,0.014,0.0134,0.0132,0.0131,0.0127,0.0127,0.0124,0.0122,0.0118,0.0119,0.0113,0.011,0.0098,0.0112,0.0113,0.0114,0.0115,0.0097,0.0096,0.0106,0.0106,0.0106,0,0,0.0143,0.0143,0.0146,0.0142,0.0139,0.014,0.0134,0.0132,0.0134,0.0126,0.0128,0.0121,0.0116,0.0115,0.0114,0.0115,0.0104,0.0114,0.0114,0.0116,0.0097,0.0096,0.0095,0.0106,0.0106,0.0106,0,0,0.0149,0.0148,0.0155,0.0153,0.0149,0.0145,0.0145,0.0138,0.0138,0.0133,0.013,0.0125,0.012,0.0118,0.0116,0.0115,0.0104,0.0115,0.0125,0.0108,0.0107,0.0106,0.0085,0.0082,0.0119,0.0119,0.0119,0,0.0153,0.0161,0.0155,0.016,0.0164,0.0149,0.0158,0.0148,0.0141,0.0144,0.0137,0.0129,0.0122,0.0123,0.0123,0.0118,0.0103,0.0124,0.0108,0.0107,0.0106,0.0085,0.0082,0.012,0.012,0.012,0.012,0,0.0164,0.0172,0.0175,0.0181,0.0181,0.0184,0.0175,0.0173,0.0168,0.0161,0.0157,0.0141,0.0141,0.0134,0.0128,0.012,0.0111,0.0108,0.0107,0.0106,0.0084,0.008,0.0121,0.012,0.012,0.012,0,0,0.0175,0.0184,0.0187,0.0201,0.0196,0.0201,0.02,0.0201,0.0214,0.0188,0.0198,0.0176,0.0165,0.0162,0.015,0.0131,0.0106,0.0117,0.0116,0.0098,0.0062,0.0056,0.0051,0.0098,0.0098,0.0098,0.0048,0,0.019,0.0212,0.021,0.0233,0.0245,0.0239,0.0246,0.0243,0.0237,0.0238,0.0207,0.0209,0.0176,0.0181,0.0152,0.0123,0.0097,0.0119,0.0065,0.0063,0.0059,0.0047,0.0096,0.0046,0.0045,0.0044,0.0044,0,0.0204,0.022,0.0247,0.0275,0.0282,0.0292,0.0315,0.0321,0.0309,0.0306,0.0287,0.0261,0.0229,0.0203,0.0134,0.0149,0.0105,0.0072,0.007,0.0059,0.0051,0.0048,0.0037,0.0037,0.0038,0.0038,0.0039,0,0.0223,0.0249,0.0277,0.0284,0.0306,0.0325,0.0341,0.0344,0.0367,0.0352,0.0361,0.0307,0.0294,0.0223,0.0144,0.0141,0.0064,0.0055,0.0004,0.0003,0.0019,0.0021,0.0002,0.0002,0.0002,0.0002,0.0003,0,0.024,0.0264,0.0292,0.0308,0.0353,0.036,0.041,0.0413,0.0432,0.0456,0.0402,0.0397,0.0297,0.0237,0.0157,0.0068,0.0072,0.0002,-0.001,0.0024,0.0027,0.0016,0.0018,0.0001,0.0001,0.0001,0.0002,0,0.0252,0.0267,0.0304,0.0342,0.0362,0.0396,0.0464,0.0499,0.0508,0.0536,0.0534,0.0471,0.0386,0.0282,0.0171,0.0098,0.0009,-0.0023,0.002,0.0012,-0.0045,-0.0041,-0.0085,-0.0086,-0.0086,-0.0087,-0.0087,0,0.0257,0.0276,0.0332,0.0365,0.0387,0.0447,0.0493,0.0532,0.0565,0.0574,0.0579,0.0514,0.0453,0.029,0.0176,0.0024,0.0,-0.0049,-0.0054,-0.0047,-0.0054,-0.005,-0.0046,-0.0088,-0.0088,-0.0088,-0.0088,0,0.027,0.0289,0.0322,0.0388,0.0443,0.0511,0.0571,0.0605,0.064,0.0652,0.0617,0.0528,0.0431,0.0289,0.0175,0.0063,-0.002,-0.0056,-0.0055,-0.006,-0.0051,-0.0056,-0.0052,-0.009,-0.009,-0.009,-0.009,0,0.028,0.0302,0.0346,0.0407,0.0477,0.0542,0.0584,0.062,0.0657,0.066,0.0642,0.0539,0.0478,0.0309,0.02,0.0093,0.0061,0.0018,0.0014,0.0014,0.0054,0.0082,0.007,0,0,0,0,0,0.0288,0.0313,0.0365,0.043,0.0502,0.0546,0.0618,0.0652,0.0684,0.0665,0.0659,0.0566,0.0403,0.0326,0.0218,0.0183,0.0039,0.0051,-0.0013,-0.01,-0.0098,-0.007,0,0,0,0,0,0,0.0291,0.0334,0.0357,0.0439,0.0489,0.0572,0.0621,0.0649,0.0636,0.0644,0.0558,0.0527,0.0367,0.0464,0.0211,0.0179,0.012,-0.002,-0.0023,-0.0102,-0.01,-0.0098,-0.0068,0,0,0,0,0]}]]